User: anonymous   Login
Location: Unspecified
(0.0000°N, 0.0000°E)
Time: 20:42:13
(UTC+00:00)
Language:

STARLINK-3397 - Orbit

View from above orbital plane
View from above orbital plane
View from above satellite
View from above satellite

Ground track
Ground track

The orbit is defined by the following mean orbital elements,

1 51115U          26144.85672225 +.00000000 +00000-0 +43381-4 0 00003
2 51115  53.2168 307.1915 0001335  91.0517 269.0628 15.08842358    08
Epoch (UTC): 24 May 2026 20:33:40
Eccentricity: 0.0001335
inclination: 53.2168°
perigee height: 539 km
apogee height: 541 km
right ascension of ascending node: 307.1915°
argument of perigee: 91.0517°
revolutions per day: 15.08842358
mean anomaly at epoch: 269.0628°

The dashed part of the orbit path shows where the satellite is in the earth's shadow,  

DLR